Chehalis, WA

9:04 PM PST on February 06, 2016 (GMT -0800)
Chehalis-Centralia

Weather History for KCLS - September, 2013

Change the Weather History Date:

Monday, September 30, 2013

  Actual Average (KOLM) Record (KOLM)
Temperature  
Mean Temperature 52 °F 55 °F  
Max Temperature 57 °F 67 °F 83 °F (1987)
Min Temperature 46 °F 43 °F 29 °F (1950)
Degree Days  
Heating Degree Days 14 10  
Month to date heating degree days 191  
Since 1 July heating degree days 340  
Cooling Degree Days 0 0  
Month to date cooling degree days 7  
Year to date cooling degree days 106  
Growing Degree Days 2 (Base 50)    
Moisture  
Dew Point 48 °F    
Average Humidity 89    
Maximum Humidity 100    
Minimum Humidity 77    
Precipitation  
Precipitation 0.54 in 0.08 in 1.52 in (2013)
Month to date precipitation 1.71  
Year to date precipitation 29.31  
Sea Level Pressure  
Sea Level Pressure 29.77 in    
Wind  
Wind Speed 8 mph (SSW)    
Max Wind Speed 15 mph    
Max Gust Speed 21 mph    
Visibility 9 miles    
Events Rain    
T = Trace of Precipitation, MM = Missing Value Source: NWS Daily Summary

Daily Weather History Graph

Daily Weather History Graph

Search for Another Location

Airport or City:

Trip Planner

Search our weather history database for the weather conditions in past years. The results will help you decide how hot, cold, wet, or windy it might be!

Date:

Astronomy

Sep. 30, 2013 Rise Set
Actual Time 7:09 AM PDT 6:52 PM PDT
Civil Twilight 6:39 AM PDT 7:23 PM PDT
Nautical Twilight 6:04 AM PDT 7:58 PM PDT
Astronomical Twilight 5:28 AM PDT 8:33 PM PDT
Moon 2:38 AM PDT (9/30) 4:38 PM PDT (9/30)
Length of Visible Light 12h 43m
Length of Day
11h 43m
Waning Crescent, 18% of the Moon is Illuminated
Sep 30
Waning Crescent
Oct 4
New
Oct 11
First Quarter
Oct 18
Full
Oct 26
Last Quarter

Hourly Weather History & Observations

Time (PDT) Temp. Windchill Dew Point Humidity Pressure Visibility Wind Dir Wind Speed Gust Speed Precip Events Conditions
12:15 AM 50.0 °F - 44.6 °F 82% 29.52 in 10.0 mi SSW 8.1 mph - N/A   Mostly Cloudy
12:35 AM 50.0 °F - 46.4 °F 87% 29.52 in 9.0 mi South 10.4 mph - N/A   Overcast
12:55 AM 50.0 °F - 46.4 °F 87% 29.52 in 7.0 mi South 9.2 mph - 0.01 in   Mostly Cloudy
1:15 AM 50.0 °F - 48.2 °F 94% 29.53 in 6.0 mi West 3.5 mph - N/A Rain Light Rain
1:35 AM 50.0 °F - 48.2 °F 94% 29.54 in 3.0 mi SSE 6.9 mph - 0.06 in Rain Rain
1:55 AM 50.0 °F - 48.2 °F 94% 29.55 in 6.0 mi South 8.1 mph - 0.07 in Rain Light Rain
2:15 AM 50.0 °F - 48.2 °F 94% 29.56 in 10.0 mi South 8.1 mph - 0.01 in   Overcast
2:35 AM 50.0 °F - 48.2 °F 94% 29.55 in 3.0 mi South 6.9 mph - 0.02 in Rain Light Rain
2:55 AM 50.0 °F - 48.2 °F 94% 29.56 in 7.0 mi South 6.9 mph - 0.03 in Rain Light Rain
3:15 AM 50.0 °F - 48.2 °F 94% 29.55 in 9.0 mi South 8.1 mph - N/A   Overcast
3:35 AM 50.0 °F - 48.2 °F 94% 29.56 in 8.0 mi SSW 8.1 mph - N/A   Overcast
3:55 AM 50.0 °F - 48.2 °F 94% 29.57 in 10.0 mi South 8.1 mph - 0.01 in Rain Rain
4:15 AM 50.0 °F - 50.0 °F 100% 29.56 in 10.0 mi SSE 10.4 mph 17.3 mph N/A   Overcast
4:35 AM 50.0 °F - 48.2 °F 94% 29.57 in 10.0 mi SSE 9.2 mph 16.1 mph N/A   Overcast
4:55 AM 50.0 °F - 50.0 °F 100% 29.58 in 10.0 mi SSE 8.1 mph - N/A   Overcast
5:15 AM 50.0 °F - 50.0 °F 100% 29.58 in 9.0 mi SSE 8.1 mph 16.1 mph N/A   Overcast
5:35 AM 50.0 °F - 50.0 °F 100% 29.59 in 10.0 mi SSE 10.4 mph - 0.01 in   Overcast
5:55 AM 50.0 °F - 50.0 °F 100% 29.60 in 9.0 mi SSE 11.5 mph - 0.01 in   Overcast
6:15 AM 50.0 °F - 50.0 °F 100% 29.61 in 10.0 mi SSE 8.1 mph - N/A   Mostly Cloudy
6:35 AM 50.0 °F - 50.0 °F 100% 29.63 in 7.0 mi SSE 6.9 mph - N/A   Overcast
6:55 AM 51.8 °F - 50.0 °F 94% 29.64 in 9.0 mi SSE 6.9 mph - N/A   Overcast
7:15 AM 51.8 °F - 50.0 °F 94% 29.65 in 9.0 mi SSW 6.9 mph - N/A   Mostly Cloudy
7:35 AM 50.0 °F - 50.0 °F 100% 29.67 in 10.0 mi South 6.9 mph - N/A   Scattered Clouds
7:55 AM 51.8 °F - 50.0 °F 94% 29.68 in 10.0 mi South 8.1 mph - N/A   Mostly Cloudy
8:15 AM 51.8 °F - 50.0 °F 94% 29.69 in 8.0 mi SSW 6.9 mph - N/A   Mostly Cloudy
8:35 AM 53.6 °F - 48.2 °F 82% 29.70 in 10.0 mi SSW 9.2 mph - N/A   Partly Cloudy
8:55 AM 53.6 °F - 48.2 °F 82% 29.71 in 9.0 mi South 9.2 mph - N/A   Partly Cloudy
9:15 AM 53.6 °F - 50.0 °F 88% 29.74 in 5.0 mi SW 5.8 mph - 0.01 in Rain Light Rain
9:35 AM 51.8 °F - 48.2 °F 88% 29.74 in 4.0 mi SSW 8.1 mph - 0.03 in Rain Light Rain
9:55 AM 53.6 °F - 50.0 °F 88% 29.75 in 10.0 mi South 5.8 mph - 0.04 in Rain Light Rain
10:15 AM 55.4 °F - 51.8 °F 88% 29.75 in 10.0 mi South 6.9 mph - N/A   Partly Cloudy
10:35 AM 55.4 °F - 50.0 °F 82% 29.77 in 2.5 mi South 9.2 mph - 0.05 in Rain Light Rain
10:55 AM 53.6 °F - 50.0 °F 88% 29.79 in 4.0 mi Calm Calm - 0.08 in Rain Light Rain
11:15 AM 51.8 °F - 50.0 °F 94% 29.79 in 4.0 mi SSW 8.1 mph - 0.03 in Rain Rain
11:35 AM 53.6 °F - 50.0 °F 88% 29.80 in 8.0 mi SSW 4.6 mph - 0.05 in Rain Light Rain
11:55 AM 53.6 °F - 50.0 °F 88% 29.80 in 10.0 mi SSW 5.8 mph - 0.05 in Rain Light Rain
12:15 PM 53.6 °F - 50.0 °F 88% 29.81 in 1.8 mi South 6.9 mph - 0.06 in Rain Light Rain
12:35 PM 55.4 °F - 53.6 °F 94% 29.82 in 10.0 mi South 8.1 mph - 0.06 in   Scattered Clouds
12:55 PM 57.2 °F - 50.0 °F 77% 29.82 in 10.0 mi SSW 9.2 mph 17.3 mph 0.06 in   Clear
1:15 PM 57.2 °F - 50.0 °F 77% 29.82 in 10.0 mi SSW 10.4 mph 18.4 mph N/A   Partly Cloudy
1:35 PM 57.2 °F - 50.0 °F 77% 29.84 in 9.0 mi WSW 3.5 mph 17.3 mph N/A Rain Light Rain
1:55 PM 53.6 °F - 48.2 °F 82% 29.86 in 4.0 mi SW 15.0 mph 20.7 mph 0.10 in Rain Rain
2:15 PM 53.6 °F - 48.2 °F 82% 29.86 in 10.0 mi SSW 8.1 mph - 0.01 in   Clear
2:35 PM 55.4 °F - 48.2 °F 77% 29.86 in 10.0 mi SW 10.4 mph 16.1 mph 0.01 in   Clear
2:55 PM 55.4 °F - 48.2 °F 77% 29.87 in 10.0 mi SW 11.5 mph 17.3 mph 0.01 in   Clear
3:15 PM 53.6 °F - 48.2 °F 82% 29.87 in 10.0 mi SW 10.4 mph 17.3 mph N/A Rain Light Rain
3:35 PM 53.6 °F - 46.4 °F 77% 29.89 in 8.0 mi SW 13.8 mph 17.3 mph 0.01 in Rain Light Rain
3:55 PM 51.8 °F - 48.2 °F 88% 29.88 in 8.0 mi SW 9.2 mph - 0.05 in Rain Heavy Rain
4:15 PM 53.6 °F - 48.2 °F 82% 29.89 in 10.0 mi WSW 8.1 mph 16.1 mph N/A   Partly Cloudy
4:35 PM 55.4 °F - 48.2 °F 77% 29.89 in 10.0 mi SW 5.8 mph - N/A   Clear
4:55 PM 55.4 °F - 48.2 °F 77% 29.90 in 10.0 mi SW 4.6 mph - N/A   Clear
5:15 PM 55.4 °F - 48.2 °F 77% 29.90 in 10.0 mi Calm Calm - N/A   Mostly Cloudy
5:35 PM 53.6 °F - 50.0 °F 88% 29.91 in 5.0 mi West 3.5 mph - 0.01 in Rain Light Rain
5:55 PM 53.6 °F - 50.0 °F 88% 29.90 in 10.0 mi SSW 4.6 mph - 0.01 in Rain Light Rain
6:15 PM 51.8 °F - 50.0 °F 94% 29.91 in 10.0 mi SW 4.6 mph - N/A   Clear
6:35 PM 50.0 °F - 46.4 °F 87% 29.91 in 10.0 mi SSW 5.8 mph - N/A   Clear
6:55 PM 50.0 °F - 46.4 °F 87% 29.92 in 10.0 mi SSW 4.6 mph - N/A   Partly Cloudy
7:15 PM 50.0 °F - 46.4 °F 87% 29.93 in 10.0 mi SSW 11.5 mph 16.1 mph N/A   Mostly Cloudy
7:35 PM 50.0 °F - 46.4 °F 87% 29.93 in 10.0 mi SSW 9.2 mph 17.3 mph N/A Rain Light Rain
7:55 PM 50.0 °F - 44.6 °F 82% 29.93 in 10.0 mi SSW 8.1 mph - N/A   Overcast
8:15 PM 48.2 °F - 46.4 °F 93% 29.94 in 10.0 mi South 5.8 mph - N/A   Overcast
8:35 PM 48.2 °F - 46.4 °F 93% 29.95 in 10.0 mi South 3.5 mph - N/A   Overcast
8:55 PM 48.2 °F - 46.4 °F 93% 29.96 in 10.0 mi SW 3.5 mph - N/A   Overcast
9:15 PM 48.2 °F - 46.4 °F 93% 29.96 in 10.0 mi SSW 4.6 mph - N/A   Mostly Cloudy
9:35 PM 48.2 °F - 46.4 °F 93% 29.95 in 10.0 mi South 5.8 mph - N/A   Mostly Cloudy
9:55 PM 48.2 °F - 46.4 °F 93% 29.96 in 10.0 mi WSW 3.5 mph - N/A   Overcast
10:15 PM 46.4 °F 43.5 °F 46.4 °F 100% 29.96 in 10.0 mi South 5.8 mph - N/A   Overcast
10:35 PM 48.2 °F - 48.2 °F 100% 29.96 in 10.0 mi South 6.9 mph - N/A   Overcast
10:55 PM 50.0 °F - 46.4 °F 87% 29.96 in 10.0 mi South 6.9 mph - N/A   Overcast
11:15 PM 50.0 °F - 48.2 °F 94% 29.96 in 10.0 mi South 6.9 mph - N/A   Overcast
11:35 PM 50.0 °F - 46.4 °F 87% 29.96 in 10.0 mi SSW 5.8 mph - N/A   Overcast
11:55 PM 50.0 °F - 46.4 °F 87% 29.96 in 5.0 mi SSW 6.9 mph - 0.01 in   Overcast